EW2835 Weather Reports


Display with metric or nautical units.
time (UTC)temp
F
wind
direction
speed
MPH
gust
MPH
rain 1hr
in
rain 24hr
in
rain mn
in
humidity
%
barometer
mb
20260508130027 55 5 1.0 7.0 0.00 0.01 0.00 67 1020.4
20260508124527 56 346 0.0 6.0 0.00 0.01 0.00 67 1020.5
20260508123025 56 17 3.0 8.0 0.00 0.01 0.00 66 1020.6
20260508121522 55 35 0.0 3.0 0.00 0.01 0.00 67 1020.5
20260508120019 55 93 0.0 2.0 0.00 0.01 0.00 71 1020.6
20260508114517 54 325 0.0 6.0 0.00 0.01 0.00 72 1020.6
20260508113018 53 34 2.0 5.0 0.00 0.01 0.00 70 1020.7
20260508111516 54 32 1.0 6.0 0.00 0.01 0.00 71 1020.7
20260508110016 54 67 3.0 6.0 0.00 0.01 0.00 68 1020.8
20260508104512 55 76 1.0 6.0 0.00 0.01 0.00 70 1020.7
20260508103009 54 19 1.0 5.0 0.00 0.01 0.00 72 1020.7
20260508101507 54 76 2.0 9.0 0.00 0.01 0.00 72 1020.7
20260508100006 53 69 4.0 6.0 0.00 0.01 0.00 71 1020.7
20260508094505 53 62 3.0 6.0 0.00 0.01 0.00 72 1020.7
20260508093004 53 61 2.0 5.0 0.00 0.01 0.00 72 1020.7
20260508091504 53 29 0.0 4.0 0.00 0.01 0.00 68 1020.6
20260508090159 53 90 2.0 5.0 0.00 0.01 0.00 70 1020.6
20260508084602 52 94 2.0 4.0 0.00 0.01 0.00 73 1020.5
20260508083058 52 39 2.0 5.0 0.00 0.01 0.00 75 1020.5
20260508081550 52 113 2.0 5.0 0.00 0.01 0.00 77 1020.5
20260508080058 51 76 3.0 6.0 0.00 0.01 0.00 79 1020.4
20260508074539 51 76 2.0 8.0 0.00 0.01 0.00 78 1020.3
20260508073040 51 61 3.0 8.0 0.00 0.01 0.00 79 1020.3
20260508071534 51 76 1.0 4.0 0.00 0.01 0.00 81 1020.1
20260508064558 50 321 1.0 4.0 0.00 0.01 0.00 83 1020.0
20260508063053 49 54 3.0 6.0 0.00 0.01 0.00 83 1019.9
20260508061548 49 9 1.0 4.0 0.00 0.01 0.00 86 1019.7
20260508060042 48 92 2.0 5.0 0.00 0.01 0.00 86 1019.6
20260508054545 47 23 0.0 4.0 0.00 0.01 0.00 88 1019.6
20260508053035 47 52 3.0 5.0 0.00 0.01 0.00 90 1019.5
20260508051532 46 26 0.0 3.0 0.00 0.01 0.00 91 1019.5
20260508050033 46 67 2.0 3.0 0.00 0.01 0.00 93 1019.4
20260508044522 44 76 1.0 4.0 0.00 0.01 0.00 96 1019.3
20260508043018 44 19 0.0 3.0 0.00 0.01 0.00 96 1019.2
20260508041516 44 15 0.0 3.0 0.00 0.01 0.00 97 1019.2
20260508040034 44 32 0.0 3.0 0.00 0.01 0.00 96 1019.1
20260508034511 44 56 0.0 3.0 0.00 0.01 0.00 96 1019.1
20260508033008 44 57 0.0 3.0 0.00 0.01 0.00 96 1018.9
20260508031513 44 179 0.0 2.0 0.00 0.01 0.00 96 1018.9
20260508030004 45 172 0.0 1.0 0.00 0.01 0.00 96 1018.9
20260508024508 45 172 0.0 0.0 0.00 0.01 0.00 97 1018.9
20260508023003 45 172 0.0 0.0 0.00 0.01 0.00 96 1018.8
20260508021502 45 172 0.0 0.0 0.00 0.01 0.00 96 1018.8
20260508014559 45 172 0.0 0.0 0.00 0.01 0.00 96 1018.7
20260508013058 45 172 0.0 0.0 0.00 0.01 0.00 96 1018.7
20260508011557 45 172 0.0 0.0 0.00 0.01 0.00 96 1018.6
20260508010056 45 172 0.0 0.0 0.00 0.01 0.00 96 1018.5
20260508004559 45 172 0.0 0.0 0.00 0.01 0.00 96 1018.5
20260508003055 45 172 0.0 0.0 0.00 0.01 0.00 96 1018.6
20260508001555 45 172 0.0 0.0 0.00 0.01 0.00 96 1018.6
20260508000058 45 172 0.0 0.0 0.00 0.01 0.00 96 1018.7
20260507234558 45 172 0.0 1.0 0.00 0.01 0.00 96 1018.7
20260507233112 45 172 0.0 1.0 0.00 0.01 0.00 96 1018.6
20260507231552 45 172 0.0 1.0 0.00 0.01 0.00 96 1018.6
20260507230052 45 172 0.0 2.0 0.00 0.01 0.00 96 1018.7
20260507224550 45 198 0.0 0.0 0.00 0.01 0.00 95 1018.7
20260507223058 45 198 0.0 0.0 0.00 0.01 0.00 95 1018.6
20260507221547 46 198 0.0 0.0 0.00 0.01 0.00 95 1018.5
20260507220043 46 198 0.0 0.0 0.00 0.01 0.00 95 1018.4
20260507214543 46 198 0.0 0.0 0.00 0.01 0.01 95 1018.4
20260507213042 46 198 0.0 0.0 0.00 0.01 0.01 95 1018.3
20260507211548 46 198 0.0 0.0 0.00 0.01 0.01 95 1018.3
20260507210057 46 198 0.0 0.0 0.00 0.01 0.01 95 1018.2
20260507204543 46 198 0.0 0.0 0.00 0.01 0.01 95 1018.2
20260507203037 46 198 0.0 0.0 0.00 0.01 0.01 94 1018.0
20260507201533 46 198 0.0 0.0 0.00 0.01 0.01 94 1017.8
20260507200034 46 198 0.0 0.0 0.00 0.01 0.01 94 1017.7
20260507194545 47 198 0.0 0.0 0.00 0.01 0.01 94 1017.6
20260507193030 47 198 0.0 0.0 0.00 0.01 0.01 94 1017.5
20260507191527 47 198 0.0 0.0 0.00 0.01 0.01 94 1017.4
20260507190039 47 198 0.0 1.0 0.00 0.01 0.01 94 1017.3
20260507184532 47 198 0.0 0.0 0.00 0.01 0.01 93 1017.1
20260507183023 47 198 0.0 1.0 0.00 0.01 0.01 93 1016.9
20260507181524 48 198 0.0 0.0 0.00 0.01 0.01 93 1016.9
20260507180021 48 198 0.0 1.0 0.00 0.01 0.01 92 1016.8
20260507174519 48 198 0.0 3.0 0.00 0.01 0.01 92 1016.8
20260507173035 48 160 0.0 3.0 0.01 0.01 0.01 91 1016.6
20260507171515 48 169 0.0 2.0 0.01 0.01 0.01 90 1016.5
20260507170020 48 166 0.0 4.0 0.01 0.01 0.01 89 1016.4
20260507164521 49 173 1.0 4.0 0.01 0.01 0.01 88 1016.3
20260507163011 49 147 0.0 1.0 0.00 0.00 0.00 87 1016.3
20260507160043 50 149 0.0 2.0 0.00 0.00 0.00 85 1016.1
20260507154541 50 86 1.0 3.0 0.00 0.00 0.00 83 1016.1
20260507153042 50 160 0.0 3.0 0.00 0.00 0.00 82 1015.9
20260507151538 50 109 0.0 3.0 0.00 0.00 0.00 80 1015.8
20260507150041 50 76 1.0 3.0 0.00 0.00 0.00 80 1015.7
20260507144538 50 94 0.0 2.0 0.00 0.00 0.00 79 1015.7
20260507143040 49 68 0.0 3.0 0.00 0.00 0.00 80 1015.6
20260507141535 49 59 1.0 9.0 0.00 0.00 0.00 79 1015.6
20260507140038 49 105 2.0 4.0 0.00 0.00 0.00 79 1015.5
20260507134532 49 63 2.0 5.0 0.00 0.00 0.00 79 1015.4
20260507133032 49 98 4.0 9.0 0.00 0.00 0.00 80 1015.4
20260507131531 49 91 3.0 9.0 0.00 0.00 0.00 79 1015.3